Location: Unspecified
(0.0000°N, 0.0000°E)
Time: 06:34:30
(UTC+00:00)

Freja - Pass Details

Date: 03 June 2024
Orbit: 548 x 1731 km, 63.0° (Epoch: 13 June)

Event Time Altitude Azimuth Distance (km) Brightness Sun altitude
Rises 18:18:00 0° 355° (N) 2,780 8.8 -4.5°
Reaches altitude 10° 18:20:30 10° 8° (N) 1,829 7.7 -5.1°
Maximum altitude 18:23:53 27° 66° (ENE) 1,078 6.0 -5.9°
Drops below altitude 10° 18:27:18 10° 125° (SE) 1,857 6.9 -6.7°
Enters shadow 18:27:58 - 129° (SE) 2,099 7.2 -6.8°
